Location: Peterborough
(44.3091°N, 78.3197°W)
Time: 00:54:50
(UTC-04:00)

Vanguard 1 Rocket - Pass Details

Date: 22 March 2023
Orbit: 655 x 4220 km, 34.3° (Epoch: 02 June)

Event Time Altitude Azimuth Distance (km) Brightness Sun altitude
Rises 21:17:07 0° 194° (SSW) 8,442 12.2 -19.8°
Reaches altitude 10° 21:25:45 10° 180° (S) 7,357 11.8 -21.3°
Enters shadow 21:40:05 21° 145° (SE) 5,852 11.0 -23.6°
